AAL596 KPHX-KSAN

Flight info

Callsign AAL596
Flight time 0h 52m
Altitude 28000
Route FYRBD1 MOHAK J2 HOGGZ LUCKI1
Aircraft A321/M-SDE3FGHIRWY/LB1

Departure

Time 2026-05-05 16:54
Airport Phoenix Sky Harbor International Airport (KPHX)

Arrival

Time 2026-05-05 17:47
Airport San Diego International Airport (KSAN)
Time Latitude Longitude Altitude Speed Heading
2026-05-05 16:18 33.43726 -112.00245 1133 ft 0 kts 90°
2026-05-05 16:43 33.43726 -112.00260 1133 ft 2 kts 90°
2026-05-05 16:43 33.43726 -112.00278 1133 ft 2 kts 90°
2026-05-05 16:44 33.43726 -112.00294 1133 ft 1 kts 90°
2026-05-05 16:44 33.43726 -112.00307 1133 ft 2 kts 70°
2026-05-05 16:44 33.43718 -112.00322 1133 ft 2 kts 36°
2026-05-05 16:44 33.43704 -112.00329 1133 ft 1 kts
2026-05-05 16:45 33.43698 -112.00329 1133 ft 1 kts 357°
2026-05-05 16:45 33.43695 -112.00329 1133 ft 0 kts 359°
2026-05-05 16:47 33.43700 -112.00329 1133 ft 1 kts 359°
2026-05-05 16:47 33.43718 -112.00330 1133 ft 3 kts 358°
2026-05-05 16:48 33.43749 -112.00330 1133 ft 6 kts 357°
2026-05-05 16:48 33.43800 -112.00333 1133 ft 7 kts 357°
2026-05-05 16:48 33.43858 -112.00328 1133 ft 8 kts
2026-05-05 16:48 33.43886 -112.00368 1133 ft 8 kts 240°
2026-05-05 16:49 33.43829 -112.00383 1133 ft 9 kts 175°
2026-05-05 16:49 33.43762 -112.00379 1133 ft 9 kts 180°
2026-05-05 16:49 33.43690 -112.00378 1133 ft 10 kts 181°
2026-05-05 16:49 33.43610 -112.00378 1132 ft 12 kts 180°
2026-05-05 16:50 33.43515 -112.00379 1130 ft 14 kts 181°
2026-05-05 16:50 33.43413 -112.00380 1130 ft 14 kts 180°
2026-05-05 16:50 33.43309 -112.00382 1129 ft 15 kts 182°
2026-05-05 16:50 33.43216 -112.00342 1128 ft 15 kts 107°
2026-05-05 16:51 33.43216 -112.00210 1128 ft 15 kts 89°
2026-05-05 16:51 33.43215 -112.00078 1128 ft 15 kts 88°
2026-05-05 16:51 33.43216 -111.99949 1128 ft 15 kts 89°
2026-05-05 16:51 33.43216 -111.99816 1127 ft 16 kts 91°
2026-05-05 16:52 33.43218 -111.99680 1127 ft 16 kts 90°
2026-05-05 16:52 33.43211 -111.99548 1127 ft 15 kts 106°
2026-05-05 16:52 33.43132 -111.99500 1127 ft 10 kts 197°
2026-05-05 16:52 33.43103 -111.99576 1128 ft 7 kts 268°
2026-05-05 16:53 33.43102 -111.99577 1128 ft 0 kts 268°
2026-05-05 16:53 33.43102 -111.99854 1127 ft 69 kts 270°
2026-05-05 16:53 33.43102 -112.00691 1129 ft 130 kts 270°
2026-05-05 16:53 33.43100 -112.01977 1175 ft 174 kts 269°
2026-05-05 16:54 33.43098 -112.03485 1652 ft 182 kts 268°
2026-05-05 16:54 33.43055 -112.04956 2439 ft 177 kts 266°
2026-05-05 16:54 33.43020 -112.06396 3026 ft 180 kts 266°
2026-05-05 16:54 33.42874 -112.07946 3337 ft 196 kts 252°
2026-05-05 16:55 33.42344 -112.09528 3657 ft 214 kts 245°
2026-05-05 16:55 33.41736 -112.11270 3926 ft 237 kts 246°
2026-05-05 16:55 33.41095 -112.13165 4291 ft 255 kts 247°
2026-05-05 16:55 33.40442 -112.15159 4857 ft 264 kts 245°
2026-05-05 16:56 33.39389 -112.16934 5542 ft 265 kts 219°
2026-05-05 16:56 33.37755 -112.17920 6260 ft 267 kts 193°
2026-05-05 16:56 33.35894 -112.17945 6969 ft 270 kts 169°
2026-05-05 16:56 33.34064 -112.17313 7710 ft 272 kts 165°
2026-05-05 16:57 33.32256 -112.16653 8400 ft 274 kts 165°
2026-05-05 16:57 33.30443 -112.16000 9044 ft 277 kts 166°
2026-05-05 16:57 33.28565 -112.15363 9722 ft 278 kts 172°
2026-05-05 16:57 33.26682 -112.15380 10355 ft 276 kts 194°
2026-05-05 16:58 33.24886 -112.16303 10731 ft 287 kts 216°
2026-05-05 16:58 33.23486 -112.18059 11005 ft 302 kts 237°
2026-05-05 16:58 33.22751 -112.20459 11248 ft 320 kts 260°
2026-05-05 16:58 33.22689 -112.23228 11575 ft 333 kts 265°
2026-05-05 16:59 33.22209 -112.25906 12005 ft 334 kts 243°
2026-05-05 16:59 33.20855 -112.28207 12662 ft 332 kts 231°
2026-05-05 16:59 33.19456 -112.30397 13288 ft 333 kts 232°
2026-05-05 16:59 33.18063 -112.32622 13875 ft 335 kts 232°
2026-05-05 17:00 33.16651 -112.34857 14461 ft 336 kts 232°
2026-05-05 17:00 33.15250 -112.37063 15038 ft 337 kts 232°
2026-05-05 17:00 33.13818 -112.39301 15604 ft 338 kts 232°
2026-05-05 17:00 33.12398 -112.41509 16130 ft 340 kts 232°
2026-05-05 17:01 33.10950 -112.43757 16676 ft 340 kts 232°
2026-05-05 17:01 33.09509 -112.45988 17200 ft 341 kts 232°
2026-05-05 17:01 33.08061 -112.48231 17724 ft 342 kts 232°
2026-05-05 17:01 33.06590 -112.50505 18230 ft 343 kts 232°
2026-05-05 17:02 33.05118 -112.52776 18730 ft 343 kts 232°
2026-05-05 17:02 33.03657 -112.55032 19217 ft 344 kts 232°
2026-05-05 17:02 33.02194 -112.57288 19718 ft 343 kts 233°
2026-05-05 17:02 33.00750 -112.59512 20238 ft 342 kts 233°
2026-05-05 17:03 32.99295 -112.61752 20739 ft 341 kts 233°
2026-05-05 17:03 32.97860 -112.63970 21239 ft 340 kts 234°
2026-05-05 17:03 32.96619 -112.66357 21700 ft 340 kts 241°
2026-05-05 17:03 32.95701 -112.68970 22165 ft 342 kts 249°
2026-05-05 17:04 32.95127 -112.71719 22640 ft 344 kts 255°
2026-05-05 17:04 32.94720 -112.74541 23081 ft 345 kts 256°
2026-05-05 17:04 32.94330 -112.77363 23509 ft 344 kts 256°
2026-05-05 17:04 32.93951 -112.80148 23911 ft 344 kts 256°
2026-05-05 17:05 32.93567 -112.82967 24275 ft 345 kts 256°
2026-05-05 17:05 32.93182 -112.85783 24629 ft 345 kts 255°
2026-05-05 17:05 32.92804 -112.88590 24968 ft 346 kts 255°
2026-05-05 17:05 32.92422 -112.91396 25303 ft 346 kts 255°
2026-05-05 17:06 32.92030 -112.94243 25637 ft 346 kts 255°
2026-05-05 17:06 32.91650 -112.97056 25964 ft 346 kts 255°
2026-05-05 17:06 32.91264 -112.99868 26257 ft 347 kts 254°
2026-05-05 17:06 32.90879 -113.02686 26556 ft 347 kts 254°
2026-05-05 17:07 32.90493 -113.05521 26846 ft 347 kts 254°
2026-05-05 17:07 32.90107 -113.08339 27111 ft 348 kts 253°
2026-05-05 17:07 32.89714 -113.11196 27386 ft 349 kts 253°
2026-05-05 17:07 32.89321 -113.14050 27702 ft 348 kts 254°
2026-05-05 17:08 32.88930 -113.16885 27915 ft 348 kts 253°
2026-05-05 17:08 32.88542 -113.19697 27936 ft 347 kts 254°
2026-05-05 17:08 32.88147 -113.22564 27943 ft 347 kts 253°
2026-05-05 17:08 32.87749 -113.25433 27948 ft 348 kts 253°
2026-05-05 17:09 32.87352 -113.28294 27952 ft 348 kts 254°
2026-05-05 17:09 32.86952 -113.31178 27954 ft 348 kts 253°
2026-05-05 17:09 32.86552 -113.34055 27954 ft 348 kts 253°
2026-05-05 17:09 32.86158 -113.36872 27954 ft 348 kts 253°
2026-05-05 17:10 32.85757 -113.39721 27952 ft 348 kts 254°
2026-05-05 17:10 32.85361 -113.42564 27954 ft 348 kts 253°
2026-05-05 17:10 32.84964 -113.45393 27954 ft 348 kts 254°
2026-05-05 17:10 32.84568 -113.48206 27953 ft 347 kts 254°
2026-05-05 17:11 32.84170 -113.51049 27951 ft 347 kts 254°
2026-05-05 17:11 32.83767 -113.53887 27951 ft 346 kts 254°
2026-05-05 17:11 32.83371 -113.56705 27951 ft 348 kts 253°
2026-05-05 17:11 32.82969 -113.59531 27951 ft 349 kts 253°
2026-05-05 17:12 32.82562 -113.62398 27951 ft 349 kts 253°
2026-05-05 17:12 32.82159 -113.65235 27952 ft 348 kts 253°
2026-05-05 17:12 32.81760 -113.68051 27955 ft 348 kts 253°
2026-05-05 17:12 32.81348 -113.70933 27958 ft 347 kts 253°
2026-05-05 17:13 32.80938 -113.73827 27961 ft 347 kts 253°
2026-05-05 17:13 32.80540 -113.76633 27963 ft 347 kts 253°
2026-05-05 17:13 32.80128 -113.79520 27962 ft 347 kts 253°
2026-05-05 17:13 32.79718 -113.82388 27960 ft 348 kts 253°
2026-05-05 17:14 32.79307 -113.85233 27961 ft 348 kts 253°
2026-05-05 17:14 32.78902 -113.88058 27960 ft 347 kts 253°
2026-05-05 17:14 32.78484 -113.90980 27959 ft 348 kts 253°
2026-05-05 17:14 32.78113 -113.93820 27958 ft 350 kts 255°
2026-05-05 17:15 32.77834 -113.96732 27957 ft 352 kts 257°
2026-05-05 17:15 32.77655 -113.99606 27956 ft 355 kts 258°
2026-05-05 17:15 32.77568 -114.02576 27959 ft 357 kts 261°
2026-05-05 17:15 32.77536 -114.05536 27960 ft 357 kts 262°
2026-05-05 17:16 32.77594 -114.08556 27958 ft 359 kts 263°
2026-05-05 17:16 32.77713 -114.11563 27959 ft 361 kts 263°
2026-05-05 17:16 32.77821 -114.14548 27964 ft 361 kts 263°
2026-05-05 17:16 32.77929 -114.17507 27961 ft 360 kts 264°
2026-05-05 17:17 32.78045 -114.20525 27967 ft 360 kts 264°
2026-05-05 17:17 32.78162 -114.23519 27970 ft 361 kts 264°
2026-05-05 17:17 32.78278 -114.26485 27973 ft 361 kts 264°
2026-05-05 17:17 32.78398 -114.29531 27968 ft 362 kts 264°
2026-05-05 17:18 32.78517 -114.32568 27976 ft 364 kts 265°
2026-05-05 17:18 32.78742 -114.35624 27975 ft 368 kts 268°
2026-05-05 17:18 32.79146 -114.38663 27968 ft 373 kts 271°
2026-05-05 17:18 32.79731 -114.41724 27966 ft 377 kts 274°
2026-05-05 17:19 32.80489 -114.44752 27976 ft 382 kts 276°
2026-05-05 17:19 32.81298 -114.47768 27965 ft 382 kts 277°
2026-05-05 17:19 32.82127 -114.50807 27959 ft 382 kts 277°
2026-05-05 17:19 32.82954 -114.53844 27969 ft 383 kts 277°
2026-05-05 17:20 32.83805 -114.56958 27956 ft 384 kts 278°
2026-05-05 17:20 32.84646 -114.60029 27974 ft 385 kts 278°
2026-05-05 17:20 32.85471 -114.63053 27967 ft 385 kts 278°
2026-05-05 17:20 32.86308 -114.66095 27961 ft 386 kts 278°
2026-05-05 17:21 32.87022 -114.69155 27966 ft 379 kts 273°
2026-05-05 17:21 32.87492 -114.72202 27968 ft 376 kts 269°
2026-05-05 17:21 32.87738 -114.75309 27969 ft 371 kts 265°
2026-05-05 17:22 32.87713 -114.81422 27970 ft 369 kts 262°
2026-05-05 17:22 32.87656 -114.84489 27950 ft 369 kts 262°
2026-05-05 17:22 32.87598 -114.87541 27954 ft 369 kts 261°
2026-05-05 17:22 32.87532 -114.90568 27952 ft 369 kts 262°
2026-05-05 17:23 32.87467 -114.93638 27971 ft 370 kts 262°
2026-05-05 17:23 32.87397 -114.96673 27966 ft 370 kts 262°
2026-05-05 17:23 32.87329 -114.99734 27956 ft 372 kts 262°
2026-05-05 17:23 32.87258 -115.02821 27940 ft 372 kts 262°
2026-05-05 17:24 32.87186 -115.05864 27948 ft 370 kts 262°
2026-05-05 17:24 32.87114 -115.08933 27949 ft 371 kts 262°
2026-05-05 17:24 32.87041 -115.11974 27944 ft 372 kts 262°
2026-05-05 17:24 32.86969 -115.15088 27945 ft 375 kts 262°
2026-05-05 17:25 32.86892 -115.18169 27807 ft 375 kts 262°
2026-05-05 17:25 32.86839 -115.20247 27661 ft 375 kts 262°
2026-05-05 17:25 32.86732 -115.24366 27374 ft 375 kts 263°
2026-05-05 17:25 32.86652 -115.27425 27165 ft 376 kts 263°
2026-05-05 17:26 32.86570 -115.30539 26932 ft 375 kts 263°
2026-05-05 17:26 32.86387 -115.33630 26720 ft 374 kts 261°
2026-05-05 17:26 32.86087 -115.36652 26502 ft 373 kts 258°
2026-05-05 17:26 32.85681 -115.39702 26287 ft 374 kts 257°
2026-05-05 17:27 32.85262 -115.42760 26069 ft 375 kts 257°
2026-05-05 17:27 32.84841 -115.45795 25809 ft 376 kts 258°
2026-05-05 17:27 32.84414 -115.48862 25518 ft 375 kts 258°
2026-05-05 17:27 32.83941 -115.51881 25470 ft 375 kts 257°
2026-05-05 17:28 32.83437 -115.54948 25429 ft 378 kts 257°
2026-05-05 17:28 32.82930 -115.58019 25191 ft 378 kts 257°
2026-05-05 17:28 32.82424 -115.61082 24755 ft 377 kts 257°
2026-05-05 17:28 32.81925 -115.64105 24229 ft 374 kts 258°
2026-05-05 17:29 32.81417 -115.67188 23623 ft 373 kts 258°
2026-05-05 17:29 32.80914 -115.70256 22899 ft 374 kts 258°
2026-05-05 17:29 32.80413 -115.73300 22221 ft 372 kts 258°
2026-05-05 17:29 32.79913 -115.76337 21710 ft 367 kts 258°
2026-05-05 17:30 32.79420 -115.79324 21235 ft 362 kts 258°
2026-05-05 17:30 32.78925 -115.82323 20679 ft 360 kts 259°
2026-05-05 17:30 32.78526 -115.85283 20086 ft 359 kts 262°
2026-05-05 17:30 32.78263 -115.88250 19567 ft 356 kts 264°
2026-05-05 17:31 32.78043 -115.91187 19019 ft 355 kts 264°
2026-05-05 17:31 32.77825 -115.94111 18513 ft 353 kts 264°
2026-05-05 17:31 32.77606 -115.97047 18014 ft 351 kts 264°
2026-05-05 17:31 32.77391 -115.99916 17485 ft 350 kts 264°
2026-05-05 17:32 32.77171 -116.02844 16973 ft 348 kts 265°
2026-05-05 17:32 32.76952 -116.05753 16508 ft 346 kts 265°
2026-05-05 17:32 32.76738 -116.08558 16061 ft 344 kts 265°
2026-05-05 17:32 32.76522 -116.11391 15577 ft 344 kts 265°
2026-05-05 17:33 32.76306 -116.14225 15076 ft 343 kts 265°
2026-05-05 17:33 32.76093 -116.17016 14580 ft 343 kts 265°
2026-05-05 17:33 32.75876 -116.19847 14092 ft 342 kts 265°
2026-05-05 17:33 32.75664 -116.22608 13778 ft 334 kts 265°
2026-05-05 17:34 32.75453 -116.25344 13552 ft 324 kts 265°
2026-05-05 17:34 32.75252 -116.27934 13416 ft 311 kts 265°
2026-05-05 17:34 32.75057 -116.30448 13108 ft 306 kts 265°
2026-05-05 17:34 32.74863 -116.32962 12701 ft 304 kts 265°
2026-05-05 17:35 32.74671 -116.35433 12302 ft 302 kts 265°
2026-05-05 17:35 32.74479 -116.37920 11904 ft 299 kts 265°
2026-05-05 17:35 32.74288 -116.40356 11534 ft 296 kts 265°
2026-05-05 17:35 32.74100 -116.42761 11139 ft 294 kts 265°
2026-05-05 17:36 32.73909 -116.45197 10755 ft 291 kts 265°
2026-05-05 17:36 32.73724 -116.47549 10601 ft 279 kts 265°
2026-05-05 17:36 32.73546 -116.49793 10485 ft 267 kts 265°
2026-05-05 17:36 32.73351 -116.51996 10169 ft 265 kts 265°
2026-05-05 17:37 32.73138 -116.54176 9813 ft 264 kts 264°
2026-05-05 17:37 32.72922 -116.56361 9459 ft 262 kts 265°
2026-05-05 17:37 32.72710 -116.58530 9104 ft 260 kts 265°
2026-05-05 17:37 32.72506 -116.60609 8781 ft 258 kts 265°
2026-05-05 17:38 32.72309 -116.62641 8462 ft 255 kts 265°
2026-05-05 17:38 32.72106 -116.64737 8150 ft 253 kts 265°
2026-05-05 17:38 32.71911 -116.66845 7824 ft 251 kts 265°
2026-05-05 17:38 32.71745 -116.68966 7488 ft 249 kts 265°
2026-05-05 17:39 32.71589 -116.71009 7168 ft 248 kts 265°
2026-05-05 17:39 32.71434 -116.73029 6844 ft 247 kts 265°
2026-05-05 17:39 32.71276 -116.75048 6516 ft 247 kts 265°
2026-05-05 17:39 32.71116 -116.77080 6187 ft 246 kts 265°
2026-05-05 17:40 32.70958 -116.79088 5964 ft 239 kts 265°
2026-05-05 17:40 32.70782 -116.80992 5953 ft 231 kts 261°
2026-05-05 17:40 32.70402 -116.82862 5959 ft 232 kts 253°
2026-05-05 17:40 32.69861 -116.84669 5774 ft 232 kts 251°
2026-05-05 17:41 32.69297 -116.86461 5532 ft 230 kts 251°
2026-05-05 17:41 32.68743 -116.88221 5279 ft 230 kts 251°
2026-05-05 17:41 32.68206 -116.90005 4982 ft 227 kts 252°
2026-05-05 17:41 32.67687 -116.91769 4587 ft 229 kts 252°
2026-05-05 17:42 32.67310 -116.93571 4282 ft 225 kts 269°
2026-05-05 17:42 32.67548 -116.95368 4007 ft 220 kts 286°
2026-05-05 17:42 32.67986 -116.97099 3742 ft 216 kts 287°
2026-05-05 17:42 32.68415 -116.98771 3504 ft 211 kts 287°
2026-05-05 17:43 32.68835 -117.00439 3270 ft 206 kts 286°
2026-05-05 17:43 32.69231 -117.02037 3060 ft 198 kts 286°
2026-05-05 17:43 32.69608 -117.03571 2871 ft 189 kts 286°
2026-05-05 17:43 32.69972 -117.05063 2656 ft 189 kts 286°
2026-05-05 17:44 32.70335 -117.06548 2313 ft 186 kts 286°
2026-05-05 17:44 32.70683 -117.07976 2040 ft 173 kts 285°
2026-05-05 17:44 32.70995 -117.09267 1754 ft 157 kts 285°
2026-05-05 17:44 32.71287 -117.10477 1472 ft 142 kts 285°
2026-05-05 17:45 32.71557 -117.11590 1252 ft 138 kts 285°
2026-05-05 17:45 32.71818 -117.12688 1045 ft 138 kts 285°
2026-05-05 17:45 32.72057 -117.13772 872 ft 138 kts 284°
2026-05-05 17:45 32.72323 -117.14867 682 ft 137 kts 286°
2026-05-05 17:46 32.72596 -117.15948 512 ft 137 kts 287°
2026-05-05 17:46 32.72871 -117.17027 293 ft 136 kts 286°
2026-05-05 17:46 32.73148 -117.18120 53 ft 135 kts 286°
2026-05-05 17:46 32.73382 -117.19080 23 ft 101 kts 286°
2026-05-05 17:47 32.73517 -117.19651 20 ft 31 kts 288°
2026-05-05 17:47 32.73517 -117.19809 20 ft 5 kts 241°
2026-05-05 17:47 32.73508 -117.19824 20 ft 0 kts 231°
2026-05-05 17:47 32.73504 -117.19830 20 ft 1 kts 229°
2026-05-05 17:48 32.73495 -117.19841 20 ft 1 kts 225°
2026-05-05 17:48 32.73489 -117.19846 20 ft 0 kts 210°
2026-05-05 17:48 32.73486 -117.19849 20 ft 0 kts 211°
2026-05-05 17:49 32.73481 -117.19852 20 ft 2 kts 214°